Weather History for Beckley, WV

Change the Weather History Date:

Sunday, February 16, 2014

  Actual Average Record
Temperature  
Mean Temperature 22 °F 35 °F  
Max Temperature 31 °F 43 °F 68 °F (1954)
Min Temperature 13 °F 26 °F -15 °F (1963)
Degree Days  
Heating Degree Days 43 30  
Month to date heating degree days 578 509  
Since 1 July heating degree days 3857 3653  
Cooling Degree Days 0 0  
Month to date cooling degree days 0 0  
Year to date cooling degree days 0 0  
Moisture  
Dew Point 17 °F    
Average Humidity 77    
Maximum Humidity 84    
Minimum Humidity 69    
Precipitation  
Precipitation T in 0.10 in 1.12 in (2003)
Month to date precipitation 2.68 1.55  
Year to date precipitation 4.62 4.36  
Snow  
Snow T in - - ()
Month to date snowfall 24.3  
Since 1 September snowfall 59.2  
Snow Depth 9.00 in    
Sea Level Pressure  
Sea Level Pressure 30.08 in    
Wind  
Wind Speed 9 mph (WSW)    
Max Wind Speed 22 mph    
Max Gust Speed 28 mph    
Visibility 10 miles    
Events      
T = Trace of Precipitation, MM = Missing Value Source: NWS Daily Summary

Daily Weather History Graph

Daily Weather History Graph

Search for Another Location

Airport:

Trip Planner

Search our weather history database for the weather conditions in past years. The results will help you decide how hot, cold, wet, or windy it might be!

Date:

Astronomy

Feb. 16, 2014 Rise Set
Actual Time 7:12 AM EST 6:04 PM EST
Civil Twilight 6:46 AM EST 6:31 PM EST
Nautical Twilight 6:15 AM EST 7:02 PM EST
Astronomical Twilight 5:45 AM EST 7:32 PM EST
Moon 7:57 PM EST (2/16) 7:44 AM EST (2/16)
Length of Visible Light 11h 45m
Length of Day
10h 51m
Full, 97% of the Moon is Illuminated
Feb 16
Full
Feb 22
Last Quarter
Mar 1
New
Mar 8
First Quarter
Mar 16
Full

Hourly Weather History & Observations

Time (EST) Temp. Windchill Dew Point Humidity Pressure Visibility Wind Dir Wind Speed Gust Speed Precip Events Conditions
12:51 AM 18.0 °F 11.1 °F 10.9 °F 74% 30.13 in 10.0 mi WNW 4.6 mph - N/A   Overcast
1:18 AM 18.0 °F 11.1 °F 10.9 °F 74% 29.99 in 10.0 mi West 4.6 mph - N/A   Overcast
1:36 AM 17.1 °F - 10.9 °F 77% 29.98 in 10.0 mi Calm Calm - N/A   Scattered Clouds
1:51 AM 15.1 °F - 10.0 °F 80% 30.12 in 10.0 mi Calm Calm - N/A   Partly Cloudy
2:51 AM 15.1 °F - 10.9 °F 84% 30.11 in 10.0 mi Calm Calm - N/A   Mostly Cloudy
3:51 AM 16.0 °F 10.4 °F 10.9 °F 81% 30.09 in 10.0 mi SSE 3.5 mph - N/A   Mostly Cloudy
4:51 AM 16.0 °F - 10.9 °F 81% 30.09 in 9.0 mi Calm Calm - N/A   Overcast
5:51 AM 16.0 °F 7.4 °F 10.9 °F 81% 30.09 in 7.0 mi SSW 5.8 mph - 0.00 in   Mostly Cloudy
6:23 AM 17.1 °F 7.6 °F 12.9 °F 84% 29.94 in 7.0 mi SSW 6.9 mph - 0.00 in   Overcast
6:51 AM 19.0 °F 9.0 °F 14.0 °F 81% 30.08 in 10.0 mi SSW 8.1 mph - 0.00 in   Overcast
7:44 AM 19.9 °F 11.1 °F 16.0 °F 85% 29.94 in 6.0 mi SSW 6.9 mph - N/A   Overcast
7:51 AM 19.9 °F 12.1 °F 16.0 °F 85% 30.09 in 8.0 mi SSW 5.8 mph - N/A   Overcast
8:08 AM 21.0 °F 12.4 °F 17.1 °F 85% 29.94 in 10.0 mi SSW 6.9 mph - N/A   Overcast
8:26 AM 21.0 °F 14.6 °F 18.0 °F 88% 29.95 in 10.0 mi SSW 4.6 mph - N/A   Overcast
8:37 AM 21.0 °F 16.2 °F 17.1 °F 85% 29.95 in 10.0 mi SW 3.5 mph - N/A   Overcast
8:44 AM 21.9 °F 15.7 °F 18.0 °F 85% 29.95 in 10.0 mi WSW 4.6 mph - N/A   Overcast
8:51 AM 21.9 °F 14.5 °F 18.0 °F 85% 30.08 in 10.0 mi SW 5.8 mph - N/A   Overcast
9:51 AM 24.1 °F 19.7 °F 19.9 °F 84% 30.07 in 10.0 mi WSW 3.5 mph - N/A   Overcast
10:07 AM 25.0 °F 16.3 °F 19.9 °F 81% 29.95 in 10.0 mi WSW 8.1 mph - N/A   Overcast
10:51 AM 27.0 °F 19.5 °F 19.9 °F 75% 30.09 in 10.0 mi WSW 6.9 mph - N/A   Overcast
11:23 AM 27.0 °F 18.0 °F 19.9 °F 75% 29.97 in 10.0 mi WSW 9.2 mph - N/A   Overcast
11:51 AM 28.0 °F 16.1 °F 19.9 °F 72% 30.08 in 10.0 mi WSW 16.1 mph 23.0 mph N/A   Overcast
12:51 PM 28.9 °F 18.6 °F 21.0 °F 72% 30.08 in 10.0 mi WSW 12.7 mph 21.9 mph N/A   Overcast
1:51 PM 28.9 °F 18.2 °F 21.0 °F 72% 30.09 in 10.0 mi WSW 13.8 mph 20.7 mph N/A   Overcast
4:51 PM 30.9 °F 21.7 °F 21.9 °F 69% 30.13 in 10.0 mi West 11.5 mph 21.9 mph N/A   Unknown
5:07 PM 30.9 °F 20.7 °F 21.9 °F 69% 30.01 in 10.0 mi West 13.8 mph 19.6 mph N/A   Overcast
5:51 PM 30.9 °F 22.8 °F 21.0 °F 67% 30.16 in 10.0 mi WNW 9.2 mph 24.2 mph N/A   Overcast
6:51 PM 30.0 °F 20.5 °F 21.0 °F 69% 30.19 in 10.0 mi WNW 11.5 mph 20.7 mph N/A   Overcast
7:02 PM 30.0 °F 21.1 °F 21.0 °F 69% 30.08 in 10.0 mi WNW 10.4 mph - N/A   Overcast
7:14 PM 30.0 °F 21.1 °F 21.0 °F 69% 30.09 in 10.0 mi WNW 10.4 mph 18.4 mph N/A   Overcast
7:51 PM 30.0 °F 21.1 °F 21.0 °F 69% 30.22 in 10.0 mi NW 10.4 mph - N/A   Unknown
8:51 PM 28.0 °F 18.1 °F 19.9 °F 72% 30.24 in 10.0 mi NNW 11.5 mph - N/A   Overcast
9:08 PM 28.0 °F 19.3 °F 19.9 °F 72% 30.13 in 10.0 mi NW 9.2 mph - N/A   Overcast
9:51 PM 28.0 °F 18.6 °F 19.9 °F 72% 30.26 in 10.0 mi NW 10.4 mph - N/A   Overcast
10:51 PM 27.0 °F 18.0 °F 19.0 °F 72% 30.26 in 10.0 mi NNW 9.2 mph - N/A   Overcast
11:51 PM 26.1 °F 15.0 °F 17.1 °F 69% 30.27 in 10.0 mi NW 12.7 mph - N/A   Overcast